カタログに戻る

ATLAS 5 CENTAUR DEB

運用中HEO
NORAD 43960·DEBRIS·🇺🇸 United States

打ち上げ Sep 17, 2014 から Cape Canaveral Space Force Station

Loading…

次のパス (今後24時間)

TLE

最新Source: Space-Track

元期: Sep 10, 2026, 11:23 UTC

1 43960U 14055P   26253.47454373 -.00000105  00000-0  00000-0 0  9999
2 43960  20.2497 129.7780 5012638 187.8945 159.5817  1.81619170 53197

AllMySatでATLAS 5 CENTAUR DEBをリアルタイム追跡

Download on the App Store